Regional Weather Roundup
Issued by NWS

Home | Current Version | Previous Version | Text Only | Print | Product List | Glossary On
Versions: 1 2 3 4 5 6 7 8 9 10 11 12 13 14 15 16 17 18 19 20 21 22 23 24 25 26 27 28 29 30 31 32 33 34 35 36 37 38 39 40 41 42 43 44 45 46 47 48 49 50
000
ASUS43 KLSX 280407
RWRMO

WEATHER SUMMARY FOR MISSOURI
NATIONAL WEATHER SERVICE SPRINGFIELD MO
1100 PM CDT WED AUG 27 2014

NOTE: "FAIR" INDICATES FEW OR NO CLOUDS BELOW 12,000 FEET WITH NO
       SIGNIFICANT WEATHER AND/OR OBSTRUCTIONS TO VISIBILITY.
       CURRENT SKY AND/OR WEATHER CONDITIONS ARE NOT AVAILABLE FOR
       CHILLICOTHE AND FARMINGTON.

MOZ001>031-035>038-043-044-053-054-280500-
...NORTHERN AND WESTERN MISSOURI...

CITY           SKY/WX    TMP DP  RH WIND       PRES   REMARKS
KANSAS CTY INT CLOUDY    78  71  79 E8        30.05S
KANSAS C DTWN  CLOUDY    80  73  79 E9        30.03S
LEE`S SUMMIT   MOCLDY    78  72  81 E5        30.05F
ST JOSEPH      CLOUDY    75  70  84 E8        30.04F
CHILLICOTHE      N/A     74  71  91 NE3       30.07F
KIRKSVILLE     PTCLDY    71  69  93 NE5       30.09F

$$
MOZ066>068-077>081-088>096-101>105-280500-
...SOUTHWEST MISSOURI...

CITY           SKY/WX    TMP DP  RH WIND       PRES   REMARKS
SPRINGFIELD    PTCLDY    79  68  69 SE8       30.07R
JOPLIN         MOCLDY    79  69  71 E6        30.04F

$$
MOZ032>034-039>042-045>050-055>058-069>072-280500-
...CENTRAL MISSOURI...

CITY           SKY/WX    TMP DP  RH WIND       PRES   REMARKS
COLUMBIA       CLEAR     72  69  90 SE6       30.07R
JEFFERSON CITY CLEAR     72  69  90 SE3       30.06S
ROLLA          PTCLDY    72  67  84 SE8       30.07S
SEDALIA        CLEAR     76  70  82 SE7       30.07R
WHITEMAN AFB   PTCLDY    74  56  53 E2        30.04F
OSAGE BEACH    CLEAR     73  66  78 E3        30.07R

$$
MOZ051-052-059>065-280500-
...EAST CENTRAL MISSOURI...

CITY           SKY/WX    TMP DP  RH WIND       PRES   REMARKS
ST LOUIS INTL  CLOUDY    75  71  87 E6        30.07F
SPIRIT OF STL  CLOUDY    73  72  96 E3G28     30.05F
ST CHARLES     CLOUDY    73  71  93 CALM      30.06F

$$
MOZ072>076-082>087-097>100-106>115-280500-
...SOUTH CENTRAL AND SOUTHEAST MISSOURI...

CITY           SKY/WX    TMP DP  RH WIND       PRES   REMARKS
CAPE GIRARDEAU MOCLDY    80  72  76 NE8       30.05F
FARMINGTON     CLOUDY    72  70  94 CALM      30.11F
POPLAR BLUFF   MOCLDY    78  72  81 CALM      30.04R
WEST PLAINS    MOCLDY    75  67  76 CALM      30.10S

$$



USA.gov is the U.S. government's official web portal to all federal, state and local government web resources and services.